Weather History for Cape Lisburne, AK

Change the Weather History Date:

Friday, June 21, 2013

  Actual Average Record
Temperature  
Mean Temperature 50 °F -  
Max Temperature 57 °F 45 °F 69 °F (2004)
Min Temperature 42 °F 35 °F 33 °F (1998)
Degree Days  
Heating Degree Days 16    
Moisture  
Dew Point 43 °F    
Average Humidity 81    
Maximum Humidity 100    
Minimum Humidity 62    
Precipitation  
Precipitation 0.00 in - - ()
Sea Level Pressure  
Sea Level Pressure 29.86 in    
Wind  
Wind Speed 11 mph (SE)    
Max Wind Speed 20 mph    
Max Gust Speed 26 mph    
Visibility 10 miles    
Events Rain    
Averages and records for this station are not official NWS values.
T = Trace of Precipitation, MM = Missing Value Source: NWS Daily Summary

Daily Weather History Graph

Daily Weather History Graph

Search for Another Location

Airport:

Trip Planner

Search our weather history database for the weather conditions in past years. The results will help you decide how hot, cold, wet, or windy it might be!

Date:

Astronomy

Dec. 31, 1969 Rise Set
Actual Time Sun does not rise Sun does not rise
Civil Twilight Sun does not rise Sun does not rise
Nautical Twilight Sun does not rise Sun does not rise
Astronomical Twilight Sun does not rise Sun does not rise
Moon No Moon Rise 2:45 AM AKDT (6/21)
Length of Visible Light 24h 00m
Length of Day
24h 00m
Waxing Gibbous, 96% of the Moon is Illuminated
Jun 21
Waxing Gibbous
Jun 23
Full
Jun 29
Last Quarter
Jul 7
New
Jul 15
First Quarter

Hourly Weather History & Observations

Time (AKDT) Temp. Windchill Dew Point Humidity Pressure Visibility Wind Dir Wind Speed Gust Speed Precip Events Conditions
12:55 AM 57.0 °F - 44.8 °F 64% 29.82 in 10.0 mi SW 18.4 mph - N/A   Clear
1:55 AM 56.3 °F - 44.1 °F 64% 29.83 in 10.0 mi SW 19.6 mph 26.5 mph N/A   Clear
2:55 AM 55.9 °F - 43.3 °F 63% 29.84 in 10.0 mi SW 18.4 mph - N/A   Clear
3:55 AM 55.9 °F - 43.0 °F 62% 29.85 in 10.0 mi SW 11.5 mph - N/A   Clear
4:55 AM 56.5 °F - 43.7 °F 62% 29.85 in 10.0 mi SSW 15.0 mph - N/A   Clear
5:55 AM 56.1 °F - 44.1 °F 64% 29.86 in 10.0 mi SSW 11.5 mph 20.7 mph N/A   Clear
6:55 AM 56.8 °F - 44.4 °F 63% 29.85 in 10.0 mi WSW 11.5 mph - N/A   Clear
7:55 AM 46.9 °F - 39.7 °F 76% 29.85 in 10.0 mi ENE 3.5 mph - N/A   Clear
8:55 AM 47.8 °F - 41.7 °F 79% 29.86 in 10.0 mi Variable 1.2 mph - N/A   Clear
9:55 AM 52.3 °F - 44.4 °F 74% 29.86 in 10.0 mi East 8.1 mph - N/A   Clear
10:55 AM 45.9 °F 43.6 °F 41.2 °F 84% 29.87 in 10.0 mi East 4.6 mph - N/A   Clear
11:55 AM 43.2 °F 39.0 °F 39.6 °F 87% 29.88 in 10.0 mi East 6.9 mph - N/A   Clear
12:55 PM 45.3 °F 40.6 °F 40.8 °F 84% 29.88 in 10.0 mi East 9.2 mph - N/A   Clear
1:55 PM 46.2 °F 43.3 °F 41.7 °F 84% 29.88 in 10.0 mi East 5.8 mph - N/A   Clear
2:55 PM 48.0 °F - 41.5 °F 78% 29.88 in 10.0 mi East 10.4 mph - N/A   Clear
3:55 PM 48.0 °F - 43.7 °F 85% 29.87 in 10.0 mi East 5.8 mph - N/A   Partly Cloudy
4:55 PM 48.2 °F - 43.3 °F 83% 29.86 in 10.0 mi East 6.9 mph - N/A   Clear
5:55 PM 47.5 °F - 44.1 °F 88% 29.87 in 10.0 mi ESE 4.6 mph - N/A   Partly Cloudy
6:55 PM 47.5 °F - 43.5 °F 86% 29.86 in 10.0 mi East 9.2 mph - N/A   Clear
7:55 PM 45.3 °F - 42.1 °F 88% 29.86 in 10.0 mi Variable 2.3 mph - N/A   Partly Cloudy
8:55 PM 46.4 °F 42.9 °F 42.3 °F 85% 29.85 in 10.0 mi East 6.9 mph - N/A   Mostly Cloudy
9:55 PM 43.2 °F 40.5 °F 42.1 °F 96% 29.85 in 10.0 mi SE 4.6 mph - N/A   Mostly Cloudy
10:16 PM 42.8 °F 39.3 °F 42.8 °F 100% 29.86 in 10.0 mi SE 5.8 mph - N/A Rain Light Rain
10:36 PM 42.8 °F 38.6 °F 42.8 °F 100% 29.85 in 10.0 mi SE 6.9 mph - N/A   Mostly Cloudy
10:55 PM 43.0 °F 39.5 °F 42.3 °F 97% 29.85 in 10.0 mi SE 5.8 mph - N/A   Mostly Cloudy
11:55 PM 42.1 °F 38.4 °F 41.5 °F 98% 29.84 in 10.0 mi SE 5.8 mph - N/A   Mostly Cloudy